This is the latest recevied weather packets stored in our database for station/object KN6ZYR. If no packets are shown the sender has not sent any weather packets the latest 10 day(s).
| Time | Temp. | Humidity | Pressure | Rain* | Wind** | Luminosity | Snow |
|---|---|---|---|---|---|---|---|
| 1778000201 | 11.11° C | 62% | 1017.1 hPa | 0 mm | - | 377 W/m² | - |
| 1777999897 | 10.56° C | 65% | 1017 hPa | 0 mm | - | 297 W/m² | - |
| 1777999592 | 10.56° C | 68% | 1016.8 hPa | 0 mm | - | 210 W/m² | - |
| 1777999290 | 10.56° C | 71% | 1017 hPa | 0 mm | - | 171 W/m² | - |
| 1777998988 | 10.56° C | 71% | 1016.8 hPa | 0 mm | - | 158 W/m² | - |
| 1777998686 | 10° C | 70% | 1017 hPa | 0 mm | - | 150 W/m² | - |
| 1777998383 | 10° C | 73% | 1016.8 hPa | 0 mm | - | 146 W/m² | - |
| 1777998081 | 10° C | 72% | 1016.7 hPa | 0 mm | - | 124 W/m² | - |
| 1777997778 | 10° C | 74% | 1016.7 hPa | 0 mm | - | 125 W/m² | - |
| 1777997475 | 10° C | 74% | 1016.6 hPa | 0 mm | - | 140 W/m² | - |
| 1777997173 | 10° C | 73% | 1016.4 hPa | 0 mm | - | 133 W/m² | - |
| 1777996870 | 10° C | 74% | 1016.8 hPa | 0 mm | - | 135 W/m² | - |
| 1777996565 | 10° C | 76% | 1016.6 hPa | 0 mm | - | 137 W/m² | - |
| 1777996263 | 10° C | 76% | 1016.6 hPa | 0 mm | - | 146 W/m² | - |
| 1777995958 | 10° C | 77% | 1016.6 hPa | 0 mm | - | 204 W/m² | - |
| 1777995655 | 9.44° C | 77% | 1016.6 hPa | 0 mm | - | 205 W/m² | - |
| 1777995352 | 9.44° C | 77% | 1016.6 hPa | 0 mm | - | 169 W/m² | - |
| 1777995049 | 9.44° C | 77% | 1016.6 hPa | 0 mm | - | 178 W/m² | - |
| 1777994746 | 9.44° C | 79% | 1016.2 hPa | 0 mm | - | 145 W/m² | - |
| 1777994442 | 8.89° C | 79% | 1016.4 hPa | 0 mm | - | 145 W/m² | - |
| 1777994137 | 8.89° C | 80% | 1016.3 hPa | 0 mm | - | 94 W/m² | - |
| 1777993835 | 8.89° C | 79% | 1016.4 hPa | 0 mm | - | 71 W/m² | - |
| 1777993531 | 8.89° C | 78% | 1015.8 hPa | 0 mm | - | 88 W/m² | - |
| 1777993227 | 8.89° C | 80% | 1015.7 hPa | 0 mm | - | 134 W/m² | - |
| 1777992924 | 8.89° C | 80% | 1015.7 hPa | 0 mm | - | 159 W/m² | - |
* Rain latest hour (hover to see other rain measurements)
** Current wind speed in m/s (hover to see current wind gust speed)